This is the latest recevied weather packets stored in our database for station/object DB0LC-2. If no packets are shown the sender has not sent any weather packets the latest 10 day(s).
| Time | Temp. | Humidity | Pressure | Rain* | Wind** | Luminosity | Snow |
|---|---|---|---|---|---|---|---|
| 1777186306 | 19.44° C | 28% | 917.2 hPa | 0 mm | - | - | - |
| 1777185709 | 19.44° C | 27% | 917.1 hPa | 0 mm | - | - | - |
| 1777185708 | 19.44° C | 27% | 917.2 hPa | 0 mm | - | - | - |
| 1777184456 | 20° C | 28% | 917 hPa | 0 mm | - | - | - |
| 1777183842 | 19.44° C | 28% | 917.1 hPa | 0 mm | - | - | - |
| 1777183195 | 19.44° C | 28% | 916.9 hPa | 0 mm | - | - | - |
| 1777182572 | 20° C | 28% | 917 hPa | 0 mm | - | - | - |
| 1777181947 | 20° C | 28% | 916.9 hPa | 0 mm | - | - | - |
| 1777180710 | 18.89° C | 28% | 916.7 hPa | 0 mm | - | - | - |
| 1777180097 | 19.44° C | 27% | 916.7 hPa | 0 mm | - | - | - |
| 1777179496 | 20° C | 28% | 916.7 hPa | 0 mm | - | - | - |
| 1777178885 | 19.44° C | 28% | 916.6 hPa | 0 mm | - | - | - |
| 1777178278 | 19.44° C | 28% | 916.7 hPa | 0 mm | - | - | - |
| 1777178277 | 19.44° C | 28% | 916.5 hPa | 0 mm | - | - | - |
| 1777177676 | 18.89° C | 28% | 916.5 hPa | 0 mm | - | - | - |
| 1777177076 | 20° C | 28% | 916.5 hPa | 0 mm | - | - | - |
| 1777176439 | 19.44° C | 28% | 916.4 hPa | 0 mm | - | - | - |
| 1777175778 | 19.44° C | 28% | 916.5 hPa | 0 mm | - | - | - |
| 1777175172 | 19.44° C | 28% | 916.4 hPa | 0 mm | - | - | - |
| 1777174527 | 20° C | 28% | 916.4 hPa | 0 mm | - | - | - |
| 1777173910 | 20° C | 28% | 916.4 hPa | 0 mm | - | - | - |
| 1777173276 | 19.44° C | 28% | 916.3 hPa | 0 mm | - | - | - |
| 1777172647 | 18.89° C | 28% | 916.3 hPa | 0 mm | - | - | - |
| 1777172646 | 18.89° C | 28% | 916.2 hPa | 0 mm | - | - | - |
| 1777172021 | 20° C | 26% | 916 hPa | 0 mm | - | - | - |
* Rain latest hour (hover to see other rain measurements)
** Current wind speed in m/s (hover to see current wind gust speed)